Miscellaneous Local Product
Issued by NWS Hastings, NE

Home | Current Version | Previous Version | Text Only | Print | Product List | Glossary Off
Versions: 1 2 3 4 5 6 7 8 9 10 11 12 13 14 15 16 17 18 19 20 21 22 23 24 25 26 27 28 29 30 31 32 33 34 35 36 37 38 39 40 41 42 43 44 45 46 47 48 49 50

492
AXUS43 KGID 230702
MISGRI

GID CWA HOURLY WEATHER ROUNDUP
NATIONAL WEATHER SERVICE HASTINGS NE
100 AM CST MON JAN 23 2017

NOTE: "FAIR" INDICATES FEW OR NO CLOUDS BELOW 12,000 FEET WITH NO
SIGNIFICANT WEATHER AND/OR OBSTRUCTIONS TO VISIBILITY.

...SOUTH CENTRAL NEBRASKA...

CITY           SKY/WX    TMP DP  RH WIND       PRES   REMARKS
GRAND ISLAND   CLEAR     26  25  96 CALM      29.89F
HASTINGS       CLEAR     31  25  78 W5        29.90F WCI  26
KEARNEY        CLEAR     30  25  80 CALM      29.89F
ORD            CLEAR     22  19  89 SW3       29.87F
YORK           CLEAR     28  28 100 CALM      29.90S
AURORA         CLEAR     27  26  94 NW5       29.89S WCI  22
LEXINGTON      CLEAR     25  22  90 CALM      29.88F
HOLDREGE       CLEAR     28  25  91 CALM      29.88F
HEBRON         CLEAR     26  26 100 CALM      29.90S

...NEBRASKA PANHANDLE...

CITY           SKY/WX    TMP DP  RH WIND       PRES   REMARKS
CHADRON        CLOUDY    19  17  92 W5        29.78F WCI  12
ALLIANCE       CLOUDY    18  14  84 S8        29.79F WCI   8
SCOTTSBLUFF    PTCLDY    28  21  75 CALM      29.79F
SIDNEY         CLOUDY    27  19  72 S6        29.79F WCI  20

...WESTERN AND NORTH CENTRAL NEBRASKA...

CITY           SKY/WX    TMP DP  RH WIND       PRES   REMARKS
VALENTINE      CLEAR     19  15  84 CALM      29.83F
AINSWORTH      CLEAR     19  18  97 CALM      29.83F
ONEILL         FOG       26  26  99 N5        29.88F VSB 3/4 WCI  21
BROKEN BOW     CLEAR     28  25  88 CALM      29.86F
IMPERIAL       PTCLDY    30  24  78 SW5       29.85F WCI  25
NORTH PLATTE   CLEAR     22  18  85 CALM      29.85F
MCCOOK         CLOUDY    24  22  91 W6        29.87F WCI  17

...EASTERN NEBRASKA...

CITY           SKY/WX    TMP DP  RH WIND       PRES   REMARKS
NORFOLK        CLOUDY    29  25  85 NW8       29.89F WCI  21
SO SIOUX CITY  CLOUDY    33  28  81 NW9       29.88F WCI  25
TEKAMAH        CLOUDY    32  28  85 NW9       29.91R WCI  24
COLUMBUS       CLEAR     28  23  80 N6        29.90F WCI  22
ALBION         CLEAR     24  20  85 CALM      29.88F
OMAHA EPPLEY   CLOUDY    31  26  82 NW16      29.91R WCI  20
OFFUTT AFB     CLOUDY    31  31 100 N7        29.91R WCI  24
MILLARD        CLOUDY    32  30  93 NW7       29.92R WCI  26
LINCOLN        CLEAR     22  21  96 N6        29.92S WCI  14
NEBRASKA CITY  CLEAR     30  30 100 CALM      29.90R
BEATRICE       CLEAR     28  27  99 CALM      29.90F FOG
FALLS CITY     CLEAR     28  26  92 W6        29.91R WCI  22

...NORTHERN KANSAS...

CITY           SKY/WX    TMP DP  RH WIND       PRES   REMARKS
GOODLAND       PTCLDY    27  23  85 CALM      29.85F
HILL CITY      CLEAR     28  26  92 W8        29.91F WCI  20
NORTON         SUNNY     28  21  74 SW8       29.89S WCI  20
PHILLIPSBURG   CLEAR     27  27 100 W6        29.91R WCI  20
SMITH CENTER   CLEAR     30  28  93 CALM      29.90F
HAYS           CLEAR     26  23  88 NW8       29.92F WCI  18
RUSSELL        CLEAR     27  23  85 S7        29.90F WCI  19
CONCORDIA      CLEAR     28  26  92 CALM      29.90F
SALINA           N/A    N/A N/A N/A MISG        N/A
TOPEKA         CLEAR     29  26  89 CALM      29.92F FOG



USA.gov is the U.S. government's official web portal to all federal, state and local government web resources and services.